Regional Weather Roundup
Issued by NWS Sioux Falls, SD

Home | Current Version | Previous Version | Graphics & Text | Print | Product List | Glossary On
Versions: 1 2 3 4 5 6 7 8 9 10 11 12 13 14 15 16 17 18 19 20 21 22 23 24 25 26 27 28 29 30 31 32 33 34 35 36 37 38 39 40 41 42 43 44 45 46 47 48 49 50
000
ASUS43 KFSD 242010
RWRFSD

WEATHER ROUNDUP FOR SE SOUTH DAKOTA/SW MINNESOTA/NW IOWA
NATIONAL WEATHER SERVICE SIOUX FALLS SD
300 PM CDT WED MAY 24 2017

NOTE: "FAIR" INDICATES FEW OR NO CLOUDS BELOW 12,000 FEET WITH NO
SIGNIFICANT WEATHER AND OR OBSTRUCTIONS TO VISIBILITY.


SDZ038>040-050-052>070-242100-
SOUTHEAST SOUTH DAKOTA

CITY           SKY/WX    TMP DP  RH WIND       PRES   REMARKS
BROOKINGS      CLOUDY    58  44  60 SE7       29.72
CHAMBERLAIN    PTSUNNY   67  46  47 SE14G20   29.66F
HURON          PTSUNNY   62  45  53 SE12      29.68F
MADISON        CLOUDY    59  50  72 SE6       29.72F
MITCHELL       PTSUNNY   63  45  51 S9        29.70F
SIOUX FALLS    CLOUDY    62  47  57 E3        29.71F
WINNER         FAIR      66  45  46 SE17      29.65F
YANKTON        CLOUDY    61  47  59 NE5       29.72F
$$

MNZ071-072-080-081-089-090-097-098-242100-
SOUTHWEST MINNESOTA

CITY           SKY/WX    TMP DP  RH WIND       PRES   REMARKS
FAIRMONT       MOSUNNY   58  45  62 N6        29.73F
JACKSON        CLOUDY    55  45  67 N9        29.73F
LUVERNE        CLOUDY    59  41  51 E6        29.73S
MARSHALL       CLOUDY    58  43  57 E6        29.73F
MONTEVIDEO     CLOUDY    63  46  55 E8        29.72F
PIPESTONE      CLOUDY    61  39  44 E7        29.72F
REDWOOD FALLS  CLOUDY    60  42  51 E7        29.72F
TRACY          PTSUNNY   59  46  62 E6        29.73F
WINDOM         MOSUNNY   57  45  62 N6        29.73F
WORTHINGTON    CLOUDY    56  44  64 NE7       29.73F
$$

IAZ001>003-012>014-020>022-031-032-NEZ013-014-SDZ071-242100-
NORTHWEST IOWA

CITY           SKY/WX    TMP DP  RH WIND       PRES   REMARKS
CHEROKEE       MOSUNNY   60  45  56 E6        29.71F
DENISON        PTSUNNY   63  45  51 NE10      29.71F
ESTHERVILLE    CLOUDY    59  47  64 N9        29.71F
LE MARS        CLOUDY    63  45  51 NE7       29.72F
ORANGE CITY    CLOUDY    61  45  55 E6        29.72S
SHELDON        CLOUDY    61  43  51 E6G15     29.70F
SIOUX CITY     PTSUNNY   65  47  52 VRB5      29.71F
SPENCER        PTSUNNY   63  44  50 NE9       29.72F
STORM LAKE       N/A     61  43  51 NE9G15    29.71F
$$

ABBREVIATIONS USED IN REMARKS
   TC - TEMPERATURE IN CELSIUS
  WCI - WIND CHILL INDEX
   HX - HEAT INDEX
  VSB - VISIBILITY





USA.gov is the U.S. government's official web portal to all federal, state and local government web resources and services.